Location: Audinghen
(50.8518°N, 1.6129°E)
Time: 09:50:13
(UTC+00:00)

Cosmos 2333 - Pass Details

Date: 07 August 2020
Orbit: 830 x 866 km, 70.9° (Epoch: 20 September)

Event Time Altitude Azimuth Distance (km) Brightness Sun altitude
Rises 00:00:09 0° 328° (NNW) 3,461 8.3 -22.8°
Reaches altitude 10° 00:02:38 10° 327° (NNW) 2,520 7.4 -22.8°
Maximum altitude 00:08:24 69° 245° (WSW) 924 4.2 -22.8°
Enters shadow 00:09:44 52° 184° (S) 1,073 4.3 -22.8°
